Tracking 19644 objects as of 25-Apr-2019
HD Live streaming from Space Station
objects crossing your sky now

THORAD AGENA D DEB

Track THORAD AGENA D DEB now!
10-day predictions


NORAD ID: 5388
Int'l Code: 1970-025KT
Perigee: 1,030.0 km
Apogee: 1,237.8 km
Inclination: 99.7 °
Period: 107.8 minutes
Semi major axis: 7504 km
RCS: 0.0247 m2 (small)
Launch date: April 8, 1970
Source: United States (US)
Launch site: AIR FORCE WESTERN TEST RANGE (AFWTR)

Note: This is SATELLITE DEBRIS
aabbcc
Your satellite tracking list
Your tracking list is empty




NASA's NSSDC Master Catalog

Two Line Element Set (TLE):
1  5388U 70025KT  19114.84327757  .00000128  00000-0  31925-3 0  9991
2  5388  99.7223 112.0827 0138469 346.0960 132.1528 13.35326934377310
Source of the keplerian elements: AFSPC